Regional Weather Roundup
Issued by NWS

Home | Current Version | Previous Version | Text Only | Print | Product List | Glossary On
Versions: 1 2 3 4 5 6 7 8 9 10 11 12 13 14 15 16 17 18 19 20 21 22 23 24 25 26 27 28 29 30 31 32 33 34 35 36 37 38 39 40 41 42 43 44 45 46 47 48 49 50
000
ASCA44 KEWX 241420
RWRMX

LATIN AMERICA AND CARIBBEAN REGIONAL WEATHER ROUNDUP
NATIONAL WEATHER SERVICE AUSTIN/SAN ANTONIO TX
900 AM CDT SUN MAY 24 2015

NOTE: "FAIR" INDICATED FEW OR NO CLOUDS BELOW 12,000 FEET WITH NO
SIGNIFICANT WEATHER AND/OR OBSTRUCTIONS TO VISIBILITY.

BAJA CALIFORNIA

CITY           SKY/WX    TMP DP  RH WIND       PRES   REMARKS
MEXICALI       SUNNY     63  46  55 NW9       29.89
TIJUANA        CLOUDY    59  48  67 W8        30.04R

NORTHWESTERN MEXICO

CITY           SKY/WX    TMP DP  RH WIND       PRES   REMARKS
CULIACAN       SUNNY     72  61  68 CALM      29.94
DURANGO        MOSUNNY   61  48  63 SW8       30.27
GUAYMAS        SUNNY     70  52  52 CALM      29.88
HERMOSILLO     SUNNY     68  46  45 SE5       29.96
CD. JUAREZ     SUNNY     64  37  36 CALM      29.94
OBREGON        SUNNY     63  39  42 N3        29.92

NORTHEASTERN MEXICO

CITY           SKY/WX    TMP DP  RH WIND       PRES   REMARKS
CHIHUAHUA      SUNNY     63  30  29 SW8       30.10
MATAMOROS      PTSUNNY   72  72 100 E6        29.93
MONCLOVA         N/A    N/A N/A N/A MISG        N/A
MONTERREY      MOSUNNY   72  68  88 NW3       29.93R
NUEVO LAREDO   MOSUNNY   73  68  83 E6        29.90R
PIEDRAS NEGRAS PTSUNNY   70  66  88 SE7       29.89R
REYNOSA        CLOUDY    70  68  94 S6        29.91
SALTILLO       PTSUNNY   70  57  64 SE9       30.15R
TORREON        MOSUNNY   72  63  73 E5        30.07R
CD. VICTORIA   MOSUNNY   72  72 100 SE9       29.97

WESTERN MEXICO

CITY           SKY/WX    TMP DP  RH WIND       PRES   REMARKS
AGUASCALIENTES SUNNY     61  54  77 S2        30.28
COLIMA         MOSUNNY   73  66  78 CALM      30.05R
DEL BAJIO        N/A    N/A N/A N/A MISG        N/A
GUADALAJARA    MOSUNNY   68  57  68 CALM      30.22
MANZANILLO       N/A    N/A N/A N/A MISG        N/A
MAZATLAN       MOSUNNY   70  59  68 CALM      29.92S
P. VALLARTA    PTSUNNY   81  73  78 CALM      29.94R
URUAPAN        PTSUNNY   64  61  88 CALM      30.22R FOG
ZACATECAS      MOSUNNY   61  41  48 SW9       30.31R

CENTRAL MEXICO

CITY           SKY/WX    TMP DP  RH WIND       PRES   REMARKS
CUERNAVACA     CLOUDY    70  61  73 CALM      30.18R
MEXICO CITY    MOSUNNY   64  52  63 CALM      30.35
MORELIA        PTSUNNY   64  59  82 CALM      30.27
POZA RICA      PTSUNNY   82  75  78 N7        29.95R
PUEBLA         MOSUNNY   55  52  88 NE2       30.33R
QUERETARO      PTSUNNY   64  57  77 NW2       30.33R
S. LUIS POTOSI MOSUNNY   61  59  94 CALM      30.25R HAZE
TAMPICO        MOSUNNY   81  75  83 SE8       29.93R HAZE
TOLUCA         FOG       54  46  76 SW6       30.41R VSB 1

SOUTHERN MEXICO

CITY           SKY/WX    TMP DP  RH WIND       PRES   REMARKS
ACAPULCO       MOSUNNY   84  77  79 N5        29.93R HX  94
B. DE HUATULCO PTSUNNY   81  70  69 CALM      29.96
OAXACA         CLOUDY    64  61  88 NW2       30.28R
P. ESCONDIDO   CLOUDY    77  73  88 E8        30.04F
VERACRUZ       SUNNY     81  73  78 SE3       29.90S
ZIHUATANEJO    MOSUNNY   81  73  78 CALM      29.93R

YUCATAN PENINSULA

CITY           SKY/WX    TMP DP  RH WIND       PRES   REMARKS
CAMPECHE       CLOUDY    79  77  94 E6        29.97R
CANCUN         PTSUNNY   84  73  70 E10       30.05R HX  91
CHETUMAL       PTSUNNY   84  73  70 E7        29.99  HX  91
CD. DEL CARMEN PTSUNNY   82  75  78 E21       29.96
COZUMEL        CLOUDY    81  72  74 SE14      30.04R
MERIDA         PTSUNNY   81  75  83 E12       30.02S
MINATITLAN     SUNNY     79  68  69 CALM      29.87
TAPACHULA      PTSUNNY   81  75  83 CALM      29.92S
TUX. GUTIERREZ PTSUNNY   72  68  88 CALM      30.03R FOG
VILLAHERMOSA   MOSUNNY   81  73  78 E12       29.96S

CENTRAL AMERICA

CITY           SKY/WX    TMP DP  RH WIND       PRES   REMARKS
BELIZE CITY    MOSUNNY   84  77  79 E10       29.99R HX  94
MANAGUA        MOSUNNY   82  70  65 E9        29.89S

CARIBBEAN

CITY           SKY/WX    TMP DP  RH WIND       PRES   REMARKS
ARUBA          MOSUNNY   88  75  66 E29G40    29.92F HX  97
CURACAO        MOSUNNY   86  75  70 E14       30.00R HX  95
KINGSTON       MOSUNNY   86  75  70 SE15      30.00F HX  95
NASSAU         MOSUNNY   82  72  69 E9        30.18S
SAN JUAN       MOSUNNY   86  72  62 E17       30.11R HX  92
SANTO DOMINGO  MOSUNNY   84  73  70 E14       30.06S HX  91
ST. CROIX      MOSUNNY   86  70  58 E20       30.10  HX  90
ST. KITTS      MOSUNNY   86  72  62 NE20      30.09S HX  92
ST. MAARTEN    MOSUNNY   84  68  58 E14       30.09S
ST. THOMAS     CLOUDY    84  72  65 E13       30.10

$$



USA.gov is the U.S. government's official web portal to all federal, state and local government web resources and services.